Station PCOC1 - 9415144 - Port Chicago, CA Image indicating link to RSS feed of recent meteorological observations for station PCOC1


Conditions at PCOC1 as of
(10:18 pm PDT on 05/23/2024)
0518 GMT on 05/24/2024:
     

Click on the graph icon in the table below to see a time series plot of the last five days of that observation.

5-day plot - Wind Direction Wind Direction (WDIR):SSW ( 200 deg true )
5-day plot - Wind Speed Wind Speed (WSPD): 8.0 kts
5-day plot - Wind Gust Wind Gust (GST): 13.0 kts
5-day plot - Atmospheric Pressure Atmospheric Pressure (PRES):29.85 in
5-day plot - Air Temperature Air Temperature (ATMP): 56.3 °F
5-day plot - Wind Speed at 10 Meters Wind Speed at 10 meters (WSPD10M): 7.8 kts
5-day plot - Wind Speed at 20 Meters Wind Speed at 20 meters (WSPD20M): 7.8 kts
5-day plot -  Wind Speed, Wind Gust and Atmospheric Pressure Combined plot of Wind Speed, Gust, and Air Pressure
NOS Water Level Observation Network Water Level
Previous observations
TIME
(PDT)
5-day plot - Wind Direction
WDIR
 
5-day plot - Wind Speed
WSPD
kts
5-day plot - Wind Gust
GST
kts
5-day plot - Wave Height
WVHT
ft
5-day plot - Dominant Wave Period
DPD
sec
5-day plot - Average Wave Period
APD
sec
5-day plot - Mean Wave Direction
MWD
 
5-day plot - Atmospheric Pressure
PRES
in
5-day plot - Pressure Tendency
PTDY
in
5-day plot - Air Temperature
ATMP
°F
5-day plot - Water Temperature
WTMP
°F
5-day plot - Dew Point
DEWP
°F
5-day plot - Salinity
SAL
psu
5-day plot - Visibility
VIS
nmi
5-day plot - Tide (above MLLW)
TIDE
ft
2024-05-23 10:12 pmSSW 8.0 14.0----29.85- 56.5-----
2024-05-23 10:06 pmSSW 7.0 13.0----29.85- 56.5-----
2024-05-23 10:00 pmSSW 7.0 12.0----29.85+0.03 56.7-----
2024-05-23 09:54 pmSSW 6.0 8.9----29.85- 56.3-----
2024-05-23 09:48 pmSSW 6.0 9.9----29.85-------
2024-05-23 09:42 pm S 7.0 13.0----29.85-------
2024-05-23 09:36 pmSSW 6.0 9.9----29.85-------
2024-05-23 09:30 pmSSW 6.0 9.9----29.85- 57.6-----
2024-05-23 09:24 pm S 6.0 12.0----29.84- 57.9-----
2024-05-23 09:18 pmSSW 6.0 14.0----29.84- 58.6-----
2024-05-23 09:12 pm S 6.0 8.9----29.84- 59.4-----
2024-05-23 09:06 pmSSW 8.0 13.0----29.83- 59.7-----
2024-05-23 09:00 pm S 6.0 11.1----29.83+0.00 60.6-----
2024-05-23 08:54 pm S 5.1 9.9----29.83- 61.0-----
2024-05-23 08:48 pmSSW 6.0 12.0----29.83- 61.7-----
2024-05-23 08:42 pm S 8.9 14.0----29.83- 62.4-----
2024-05-23 08:36 pm S 7.0 13.0----29.83- 63.7-----
2024-05-23 08:30 pmSSW 4.1 7.0----29.83- 63.3-----
2024-05-23 08:24 pmSSW 5.1 8.0----29.83- 63.9-----
2024-05-23 08:18 pm SW 5.1 15.0----29.83- 64.8-----
2024-05-23 08:12 pmWSW 12.0 14.0----29.83- 66.7-----
2024-05-23 08:06 pmWSW 12.0 14.0----29.83- 67.1-----
2024-05-23 08:00 pm W 11.1 13.0----29.82-0.02 66.7-----
2024-05-23 07:54 pmWSW 11.1 13.0----29.83- 67.3-----
2024-05-23 07:48 pmWSW 7.0 8.9----29.82- 66.6-----
2024-05-23 07:42 pmWSW 8.0 13.0----29.82- 66.9-----
2024-05-23 07:36 pmWSW 8.9 14.0----29.82- 67.5-----
2024-05-23 07:30 pmWSW 12.0 14.0----29.82- 68.0-----
2024-05-23 07:24 pmWSW 12.0 14.0----29.82- 68.2-----
2024-05-23 07:18 pmWSW 12.0 15.0----29.82- 68.5-----
2024-05-23 07:12 pmWSW 12.0 15.0----29.82- 69.1-----
2024-05-23 07:06 pmWSW 12.0 14.0----29.83- 69.3-----
2024-05-23 07:00 pmWSW 12.0 15.0----29.83-0.02 69.8-----
2024-05-23 06:54 pm W 12.0 15.0----29.83- 69.8-----
2024-05-23 06:48 pm W 12.0 14.0----29.83- 69.8-----
2024-05-23 06:42 pm W 14.0 15.9----29.83- 69.8-----
2024-05-23 06:36 pm W 15.0 15.9----29.83- 69.8-----
2024-05-23 06:30 pm W 14.0 15.9----29.83- 70.0-----
2024-05-23 06:24 pm W 14.0 15.9----29.83- 70.0-----
2024-05-23 06:18 pm W 15.0 15.9----29.83- 70.2-----
2024-05-23 06:12 pm W 14.0 15.9----29.83- 70.5-----
2024-05-23 06:06 pm W 12.0 13.0----29.83- 70.5-----
2024-05-23 06:00 pm W 12.0 14.0----29.83-0.03 70.9-----
2024-05-23 05:54 pm W 9.9 13.0----29.83- 71.8-----
2024-05-23 05:48 pm W 11.1 12.0----29.83- 71.8-----
2024-05-23 05:42 pm W 11.1 12.0----29.83- 72.3-----
2024-05-23 05:36 pm W 11.1 13.0----29.83- 72.7-----
2024-05-23 05:30 pm W 12.0 14.0----29.83- 73.4-----
2024-05-23 05:24 pmWSW 12.0 15.0----29.84- 73.4-----
2024-05-23 05:18 pm W 14.0 15.9----29.84- 73.8-----
2024-05-23 05:12 pmWSW 11.1 15.0----29.84- 73.4-----
2024-05-23 05:06 pmWSW 11.1 14.0----29.84- 73.4-----
2024-05-23 05:00 pmWSW 12.0 15.0----29.84-0.04 73.6-----
2024-05-23 04:54 pmWSW 11.1 14.0----29.84- 73.4-----
2024-05-23 04:48 pmWSW 9.9 12.0----29.84- 73.4-----
2024-05-23 04:42 pm W 11.1 13.0----29.84- 73.8-----
2024-05-23 04:36 pmWSW 12.0 14.0----29.84- 73.8-----
2024-05-23 04:30 pm W 13.0 15.0----29.85- 73.9-----
2024-05-23 04:24 pm W 13.0 15.0----29.85- 74.1-----
2024-05-23 04:18 pm W 13.0 17.1----29.85- 73.9-----
2024-05-23 04:12 pmWSW 13.0 15.0----29.85- 73.9-----
2024-05-23 04:06 pmWSW 13.0 17.1----29.85- 73.9-----
2024-05-23 04:00 pm W 13.0 15.9----29.85-0.04 73.9-----
2024-05-23 03:54 pmWSW 14.0 15.9----29.85- 73.8-----
2024-05-23 03:48 pm W 13.0 15.9----29.85- 73.6-----
2024-05-23 03:42 pm W 14.0 17.1----29.85- 73.8-----
2024-05-23 03:36 pmWSW 14.0 17.1----29.85- 73.6-----
2024-05-23 03:30 pm W 14.0 15.9----29.86- 73.8-----
2024-05-23 03:24 pm W 14.0 18.1----29.86- 73.4-----
2024-05-23 03:18 pm W 14.0 17.1----29.86- 73.4-----
2024-05-23 03:12 pm W 13.0 15.0----29.86- 73.2-----
2024-05-23 03:06 pm W 14.0 15.9----29.86- 73.0-----
2024-05-23 03:00 pm W 13.0 15.0----29.86-0.04 73.2-----
2024-05-23 02:54 pm W 13.0 17.1----29.86- 72.3-----
2024-05-23 02:48 pm W 13.0 15.9----29.86- 72.5-----
2024-05-23 02:42 pm W 13.0 14.0----29.86- 72.3-----
2024-05-23 02:36 pm W 12.0 13.0----29.86- 71.8-----
2024-05-23 02:30 pm W 12.0 14.0----29.87- 72.0-----
2024-05-23 02:24 pm W 13.0 14.0----29.87- 72.0-----
2024-05-23 02:18 pm W 13.0 14.0----29.87- 71.6-----
2024-05-23 02:12 pm W 13.0 13.0----29.87- 71.4-----
2024-05-23 02:06 pm W 11.1 13.0----29.87- 71.2-----
2024-05-23 02:00 pm W 12.0 14.0----29.88-0.03 71.4-----
2024-05-23 01:54 pm W 12.0 14.0----29.88- 71.4-----
2024-05-23 01:48 pm W 13.0 15.0----29.88- 71.1-----
2024-05-23 01:42 pm W 12.0 13.0----29.88- 70.9-----
2024-05-23 01:36 pm W 12.0 14.0----29.88- 70.7-----
2024-05-23 01:30 pm W 13.0 14.0----29.88- 71.1-----
2024-05-23 01:24 pm W 12.0 13.0----29.88- 70.7-----
2024-05-23 01:18 pm W 12.0 13.0----29.88- 70.7-----
2024-05-23 01:12 pm W 12.0 13.0----29.88- 70.5-----
2024-05-23 01:06 pm W 11.1 13.0----29.88- 70.3-----
2024-05-23 01:00 pm W 12.0 13.0----29.88-0.03 70.2-----
2024-05-23 12:54 pm W 11.1 13.0----29.89- 69.8-----
2024-05-23 12:48 pm W 12.0 14.0----29.89- 69.4-----
2024-05-23 12:42 pm W 12.0 14.0----29.89- 69.3-----
2024-05-23 12:36 pm W 11.1 14.0----29.89- 69.1-----
2024-05-23 12:30 pm W 12.0 15.0----29.90- 68.5-----
2024-05-23 12:24 pm W 14.0 15.0----29.90- 68.2-----
2024-05-23 12:18 pm W 13.0 15.9----29.90- 68.0-----
2024-05-23 12:12 pm W 13.0 14.0----29.90- 68.0-----
2024-05-23 12:06 pm W 12.0 13.0----29.90- 67.8-----
2024-05-23 12:00 pm W 12.0 14.0----29.90-0.02 67.6-----
2024-05-23 11:54 am W 14.0 15.9----29.90- 67.3-----
2024-05-23 11:48 am W 13.0 14.0----29.90- 67.3-----
2024-05-23 11:42 am W 13.0 14.0----29.90- 66.9-----
2024-05-23 11:36 am W 11.1 14.0----29.90- 66.6-----
2024-05-23 11:30 am W 13.0 15.0----29.91- 66.0-----
2024-05-23 11:24 am W 13.0 14.0----29.91- 65.7-----
2024-05-23 11:18 am W 12.0 14.0----29.91- 65.7-----
2024-05-23 11:12 am W 11.1 14.0----29.91- 65.1-----
2024-05-23 11:06 am W 13.0 15.9----29.91- 64.4-----
2024-05-23 11:00 am W 12.0 15.0----29.91+0.00 64.0-----
2024-05-23 10:54 am W 11.1 15.0----29.91- 63.9-----
2024-05-23 10:48 am W 14.0 15.0----29.91-------
2024-05-23 10:42 am W 12.0 15.0----29.91-------
2024-05-23 10:36 am W 11.1 14.0----29.91-------
2024-05-23 10:30 amWSW 9.9 12.0----29.91- 63.1-----
2024-05-23 10:24 amWSW 11.1 13.0----29.91- 62.6-----
2024-05-23 10:18 amWSW 11.1 13.0----29.91- 62.6-----
2024-05-23 10:12 am W 11.1 15.0----29.91- 62.1-----
2024-05-23 10:06 amWSW 13.0 15.0----29.91- 61.7-----
2024-05-23 10:00 am W 12.0 15.9----29.91+0.01 61.2-----
2024-05-23 09:54 amWSW 13.0 17.1----29.92- 61.2-----
2024-05-23 09:48 amWSW 14.0 15.9----29.92- 61.0-----
2024-05-23 09:42 am W 15.0 17.1----29.92- 60.4-----
2024-05-23 09:36 am W 15.0 17.1----29.92- 60.1-----
2024-05-23 09:30 am W 12.0 14.0----29.92- 60.4-----
2024-05-23 09:24 amWSW 13.0 15.9----29.92- 59.9-----
2024-05-23 09:18 amWSW 13.0 15.0----29.92- 59.7-----
2024-05-23 09:12 amWSW 11.1 17.1----29.92- 59.9-----
2024-05-23 09:06 amWSW 12.0 15.0----29.92- 59.7-----
2024-05-23 09:00 amWSW 12.0 15.9----29.92+0.03 59.9-----
2024-05-23 08:54 amWSW 14.0 15.9----29.92- 59.5-----
2024-05-23 08:48 amWSW 13.0 15.9----29.92- 59.4-----
2024-05-23 08:42 amWSW 13.0 17.1----29.92- 59.4-----
2024-05-23 08:36 am SW 12.0 15.9----29.92- 59.2-----
2024-05-23 08:30 amWSW 14.0 15.9----29.92- 58.8-----
2024-05-23 08:24 amWSW 12.0 15.0----29.92- 58.6-----
2024-05-23 08:18 amWSW 14.0 17.1----29.92- 58.5-----
2024-05-23 08:12 amWSW 14.0 17.1----29.91- 58.5-----
2024-05-23 08:06 amWSW 13.0 15.9----29.92- 58.3-----
2024-05-23 08:00 amWSW 13.0 15.9----29.91+0.02 58.3-----
2024-05-23 07:54 amWSW 13.0 15.9----29.91- 58.3-----
2024-05-23 07:48 am SW 13.0 17.1----29.91- 58.1-----
2024-05-23 07:42 am SW 11.1 15.0----29.91- 57.9-----
2024-05-23 07:36 am SW 11.1 15.0----29.91- 57.9-----
2024-05-23 07:30 am SW 13.0 15.0----29.91- 57.6-----
2024-05-23 07:24 am SW 11.1 15.0----29.91- 57.4-----
2024-05-23 07:18 amWSW 11.1 14.0----29.91- 57.7-----
2024-05-23 07:12 am SW 8.9 12.0----29.91- 56.8-----
2024-05-23 07:06 am SW 8.0 13.0----29.91- 56.5-----
2024-05-23 07:00 amSSW 6.0 9.9----29.90+0.01 55.0-----
2024-05-23 06:54 amSSW 6.0 8.9----29.90- 54.7-----
2024-05-23 06:48 amSSW 4.1 7.0----29.90- 54.5-----
2024-05-23 06:42 amSSW 4.1 7.0----29.90- 54.1-----
2024-05-23 06:36 amSSW 5.1 11.1----29.90- 53.8-----
2024-05-23 06:30 amSSW 7.0 11.1----29.90- 53.6-----
2024-05-23 06:24 amSSW 5.1 6.0----29.89- 53.4-----
2024-05-23 06:18 amSSW 4.1 8.0----29.89- 53.1-----
2024-05-23 06:12 amSSW 4.1 7.0----29.89- 53.2-----
2024-05-23 06:06 amSSW 5.1 8.0----29.89- 53.4-----
2024-05-23 06:00 amSSW 4.1 7.0----29.89+0.00 53.2-----
2024-05-23 05:54 amSSW 5.1 8.0----29.89- 53.4-----
2024-05-23 05:48 amSSW 6.0 8.9----29.89- 53.6-----
2024-05-23 05:42 amSSW 5.1 9.9----29.90- 53.8-----
2024-05-23 05:36 amSSW 4.1 8.9----29.89- 53.4-----
2024-05-23 05:30 am S 5.1 9.9----29.89- 53.4-----
2024-05-23 05:24 am S 6.0 9.9----29.89- 53.6-----
2024-05-23 05:18 am S 5.1 8.9----29.89- 54.0-----
2024-05-23 05:12 amSSW 4.1 7.0----29.89- 53.8-----
2024-05-23 05:06 amSSW 4.1 9.9----29.89- 54.0-----
2024-05-23 05:00 amSSW 4.1 8.0----29.89+0.01 54.1-----
2024-05-23 04:54 amSSW 5.1 7.0----29.89- 54.0-----
2024-05-23 04:48 amSSW 6.0 9.9----29.89- 54.7-----
2024-05-23 04:42 amSSW 4.1 9.9----29.89- 54.1-----
2024-05-23 04:36 amSSW 5.1 8.9----29.89- 54.7-----
2024-05-23 04:30 amSSW 4.1 9.9----29.89- 54.7-----
2024-05-23 04:24 am S 6.0 12.0----29.89- 55.0-----
2024-05-23 04:18 amSSW 5.1 9.9----29.89- 54.9-----
2024-05-23 04:12 amSSW 5.1 8.9----29.89- 54.9-----
2024-05-23 04:06 am S 6.0 11.1----29.89- 55.2-----
2024-05-23 04:00 amSSW 5.1 9.9----29.89+0.02 54.9-----
2024-05-23 03:54 am S 5.1 9.9----29.89- 54.9-----
2024-05-23 03:48 am S 7.0 12.0----29.88- 54.9-----
2024-05-23 03:42 am S 6.0 9.9----29.88- 55.2-----
2024-05-23 03:36 amSSW 5.1 8.9----29.89- 55.0-----
2024-05-23 03:30 amSSW 5.1 8.9----29.89- 54.9-----
2024-05-23 03:24 am S 5.1 11.1----29.89- 54.9-----
2024-05-23 03:18 am S 7.0 12.0----29.89- 55.2-----
2024-05-23 03:12 am S 8.0 12.0----29.89- 55.0-----
2024-05-23 03:06 amSSW 5.1 12.0----29.89- 55.0-----
2024-05-23 03:00 amSSW 5.1 9.9----29.88+0.02 54.9-----
2024-05-23 02:54 amSSW 4.1 8.0----29.88- 55.0-----
2024-05-23 02:48 amSSW 4.1 8.0----29.88- 55.2-----
2024-05-23 02:42 amSSW 5.1 9.9----29.88- 55.4-----
2024-05-23 02:36 am S 8.0 12.0----29.88- 55.6-----
2024-05-23 02:30 am S 6.0 9.9----29.88- 55.4-----
2024-05-23 02:24 am S 6.0 8.9----29.88- 55.8-----
2024-05-23 02:18 am S 5.1 11.1----29.88- 55.6-----
2024-05-23 02:12 am S 7.0 11.1----29.88- 56.1-----
2024-05-23 02:06 amSSW 5.1 9.9----29.88- 56.3-----
2024-05-23 02:00 amSSW 5.1 9.9----29.88+0.01 56.5-----
2024-05-23 01:54 amSSW 5.1 8.9----29.88- 56.7-----
2024-05-23 01:48 amSSW 7.0 9.9----29.88- 56.3-----
2024-05-23 01:42 amSSW 6.0 8.9----29.88- 56.8-----
2024-05-23 01:36 amSSW 5.1 9.9----29.88- 57.2-----
2024-05-23 01:30 am SW 8.9 11.1----29.88- 58.3-----
2024-05-23 01:24 amSSW 5.1 9.9----29.88- 56.7-----
2024-05-23 01:18 am SW 9.9 11.1----29.88- 59.0-----
2024-05-23 01:12 am SW 8.9 9.9----29.88- 58.3-----
2024-05-23 01:06 am SW 8.9 11.1----29.87- 58.6-----
2024-05-23 01:00 amSSW 7.0 12.0----29.87+0.00 57.7-----
2024-05-23 12:54 amSSW 5.1 8.0----29.87- 57.9-----
2024-05-23 12:48 amSSW 5.1 12.0----29.87- 57.9-----
2024-05-23 12:42 am SW 8.9 13.0----29.87- 60.1-----
2024-05-23 12:36 am SW 8.0 13.0----29.87- 59.7-----
2024-05-23 12:30 am SW 11.1 15.0----29.87- 61.0-----
2024-05-23 12:24 amSSW 8.9 14.0----29.87- 61.2-----
2024-05-23 12:18 amSSW 8.0 14.0----29.87- 61.2-----
2024-05-23 12:12 am SW 11.1 15.0----29.87- 61.3-----
2024-05-23 12:06 am SW 8.9 13.0----29.86- 61.0-----
2024-05-23 12:00 am SW 11.1 18.1----29.86+0.00 61.3-----
2024-05-22 11:54 pm SW 12.0 17.1----29.86- 61.3-----
2024-05-22 11:48 pm SW 12.0 15.0----29.86- 61.7-----
2024-05-22 11:42 pm SW 13.0 17.1----29.86- 61.5-----
2024-05-22 11:36 pm SW 14.0 15.9----29.86- 61.9-----
2024-05-22 11:30 pm SW 11.1 15.0----29.86- 61.2-----
2024-05-22 11:24 pm SW 9.9 13.0----29.86- 61.3-----
2024-05-22 11:18 pmSSW 6.0 8.0----29.86- 59.7-----
2024-05-22 11:12 pmSSW 6.0 9.9----29.86- 59.7-----
2024-05-22 11:06 pm S 2.9 6.0----29.87- 59.5-----
2024-05-22 11:00 pmSSW 4.1 7.0----29.87+0.02------
2024-05-22 10:54 pm S 4.1 8.0----29.86-------